DW4722 Weather Reports


time (UTC)temp
F
wind
direction
speed
knots
gust
knots
rain 1hr
in
rain 24hr
in
rain mn
in
humidity
%
barometer
mb
20260510181539 64 194 4.3 0.0 0.00 0.00 0.01 57 1011.5
20260510180038 63 227 3.5 0.0 0.00 0.00 0.01 64 1011.4
20260510174536 63 225 2.6 0.0 0.00 0.00 0.01 63 1011.3
20260510173033 62 259 1.7 0.0 0.00 0.00 0.01 68 1011.3
20260510171531 61 304 3.5 0.0 0.00 0.00 0.01 67 1011.5
20260510170026 61 236 4.3 0.0 0.00 0.00 0.01 70 1011.4
20260510164527 58 237 3.5 0.0 0.00 0.00 0.01 67 1011.7
20260510163020 57 249 3.5 0.0 0.00 0.00 0.01 74 1011.9
20260510161518 57 263 4.3 0.0 0.00 0.00 0.01 75 1011.8
20260510160015 59 300 3.5 0.0 0.00 0.00 0.01 82 1011.7
20260510154513 58 223 4.3 0.0 0.00 0.00 0.01 84 1011.7
20260510153009 57 236 2.6 0.0 0.00 0.00 0.01 86 1011.5
20260510151505 56 217 2.6 0.0 0.00 0.00 0.01 87 1011.4
20260510150004 56 207 0.0 0.0 0.00 0.00 0.01 88 1011.3
20260510144502 56 207 0.9 0.0 0.00 0.00 0.01 89 1011.2
20260510143109 56 200 0.9 0.0 0.00 0.00 0.01 89 1010.9
20260510141603 55 196 0.0 0.0 0.00 0.00 0.01 88 1010.5
20260510140057 56 290 0.9 0.0 0.00 0.00 0.01 87 1011.0
20260510134558 56 244 2.6 0.0 0.00 0.00 0.01 87 1010.7
20260510133053 56 238 4.3 0.0 0.00 0.00 0.01 87 1010.3
20260510131554 56 254 4.3 0.0 0.00 0.00 0.01 88 1010.3
20260510130050 55 187 4.3 0.0 0.00 0.00 0.01 90 1010.2
20260510124550 55 234 2.6 0.0 0.00 0.00 0.01 91 1010.3
20260510123045 54 238 2.6 0.0 0.00 0.00 0.01 91 1010.2
20260510121542 54 219 2.6 0.0 0.00 0.00 0.01 92 1010.0
20260510120038 53 217 3.5 0.0 0.00 0.00 0.01 92 1009.9
20260510114537 53 204 4.3 0.0 0.00 0.00 0.01 93 1009.9
20260510113035 52 219 2.6 0.0 0.00 0.00 0.01 93 1010.1
20260510111535 52 194 2.6 0.0 0.00 0.00 0.01 92 1009.8
20260510110029 51 190 0.9 0.0 0.00 0.00 0.01 92 1009.7
20260510104527 50 190 0.0 0.0 0.00 0.00 0.01 92 1009.4
20260510103025 50 190 0.0 0.0 0.00 0.00 0.01 92 1009.2
20260510101523 50 190 0.0 0.0 0.00 0.00 0.01 92 1009.0
20260510100020 49 190 0.0 0.0 0.00 0.00 0.01 91 1009.0
20260510094519 50 190 0.0 0.0 0.00 0.00 0.01 91 1008.6
20260510093015 50 190 0.0 0.0 0.00 0.00 0.01 90 1008.2
20260510091514 50 190 0.0 0.0 0.00 0.00 0.01 90 1008.2
20260510090014 51 190 0.0 0.0 0.00 0.00 0.01 90 1008.1
20260510084506 52 190 0.0 0.0 0.00 0.00 0.01 90 1008.2
20260510083005 52 190 0.0 0.0 0.00 0.00 0.01 91 1008.4
20260510081517 52 190 0.0 0.0 0.00 0.00 0.01 91 1008.1
20260510080004 52 190 3.5 0.0 0.00 0.00 0.01 91 1007.8
20260510074503 52 182 0.9 0.0 0.00 0.00 0.01 91 1007.6
20260510073106 52 196 1.7 0.0 0.00 0.00 0.01 90 1008.4
20260510071601 52 199 1.7 0.0 0.00 0.00 0.01 90 1009.0
20260510070053 53 206 2.6 0.0 0.00 0.00 0.01 89 1009.0
20260510064557 53 232 2.6 0.0 0.00 0.00 0.01 89 1009.1
20260510063049 53 225 0.0 0.0 0.00 0.00 0.00 87 1008.9
20260510061549 54 225 0.0 0.0 0.00 0.00 0.00 87 1008.6
20260510060050 54 225 2.6 0.0 0.00 0.00 0.00 87 1008.8
20260510054545 54 204 3.5 0.0 0.00 0.00 0.00 87 1008.5
20260510053057 54 194 1.7 0.0 0.00 0.00 0.00 87 1008.3
20260510051548 54 190 2.6 0.0 0.00 0.00 0.00 86 1008.3
20260510050041 54 194 2.6 0.0 0.00 0.00 0.00 86 1008.5
20260510044554 54 202 1.7 0.0 0.00 0.00 0.00 86 1008.5
20260510043044 54 202 3.5 0.0 0.00 0.00 0.00 86 1008.5
20260510041535 54 190 1.7 0.0 0.00 0.00 0.00 86 1008.3
20260510040040 54 201 2.6 0.0 0.00 0.00 0.00 86 1008.5
20260510034534 54 199 2.6 0.0 0.00 0.00 0.17 86 1008.4
20260510033047 54 200 3.5 0.0 0.00 0.00 0.17 87 1008.2
20260510031534 53 196 2.6 0.0 0.00 0.00 0.17 88 1008.4
20260510030036 53 197 2.6 0.0 0.00 0.00 0.17 89 1008.5
20260510024528 53 196 2.6 0.0 0.00 0.00 0.17 91 1008.6
20260510023029 52 194 2.6 0.0 0.00 0.00 0.17 91 1008.5
20260510021528 52 192 1.7 0.0 0.00 0.00 0.17 92 1008.4
20260510020027 52 196 0.9 0.0 0.00 0.00 0.17 91 1008.7
20260510014528 52 196 0.0 0.0 0.00 0.00 0.17 91 1008.4
20260510013024 52 196 0.0 0.0 0.00 0.00 0.17 91 1008.9
20260510011523 52 196 0.0 0.0 0.00 0.00 0.17 91 1008.8
20260510010026 53 196 0.0 0.0 0.00 0.00 0.17 90 1008.5
20260510004522 53 196 0.0 0.0 0.00 0.00 0.17 90 1008.6
20260510003021 53 196 0.0 0.0 0.00 0.00 0.17 89 1008.4
20260510001521 54 196 0.0 0.0 0.00 0.00 0.17 89 1008.0
20260510000021 54 196 0.0 0.0 0.00 0.00 0.17 89 1008.0
20260509234530 54 196 0.0 0.0 0.00 0.00 0.17 89 1008.1
20260509233016 54 196 0.0 0.0 0.00 0.00 0.17 89 1007.8
20260509231519 54 196 0.0 0.0 0.00 0.00 0.17 89 1007.7
20260509230021 54 196 0.0 0.0 0.00 0.00 0.17 89 1007.6
20260509224515 54 196 0.9 0.0 0.00 0.00 0.17 89 1007.7
20260509223013 54 196 0.0 0.0 0.00 0.00 0.17 89 1007.6
20260509221512 53 196 0.9 0.0 0.00 0.00 0.17 90 1007.8
20260509220011 53 198 0.0 0.0 0.00 0.00 0.17 91 1008.0
20260509214506 52 198 0.0 0.0 0.00 0.00 0.17 91 1008.2
20260509213006 52 198 0.0 0.0 0.00 0.00 0.17 91 1008.3
20260509211504 52 198 0.0 0.0 0.00 0.00 0.17 91 1008.5
20260509204557 52 198 0.0 0.0 0.00 0.00 0.16 91 1008.7
20260509203104 52 198 0.0 0.0 0.00 0.00 0.16 91 1008.9
20260509201602 52 198 0.0 0.0 0.00 0.00 0.16 91 1009.2
20260509200106 52 198 0.9 0.0 0.00 0.00 0.16 91 1009.2
20260509194551 52 198 0.0 0.0 0.00 0.00 0.16 91 1009.3
20260509193110 51 198 0.9 0.0 0.00 0.00 0.16 91 1009.3
20260509191548 51 214 0.0 0.0 0.00 0.00 0.16 91 1009.5
20260509190048 51 214 0.0 0.0 0.00 0.00 0.16 91 1009.6
20260509184559 51 215 0.0 0.0 0.00 0.00 0.16 91 1009.6
20260509183042 51 215 0.0 0.0 0.00 0.00 0.16 90 1009.8